{"data":{"norad_id":58635,"epoch":"2026-05-24T23:13:13.301184Z","epoch_age_seconds":71649,"freshness":"FRESH","line1":"1 58635U 23203T   26144.96751506  .00000748  00000+0  36693-4 0  9992","line2":"2 58635  43.0028 356.6179 0001140 279.0117  81.0606 15.27583785136457","mean_motion":15.27583785,"eccentricity":0.000114,"inclination_deg":43.0028,"raan_deg":356.6179,"arg_perigee_deg":279.0117,"mean_anomaly_deg":81.0606,"bstar":3.6693e-5,"rev_number":13645,"period_min":94.266515142408,"perigee_km":482.25558848849,"apogee_km":483.81993633432,"semimajor_km":6861.1747624114,"source":"CELESTRAK","updated_at":"2026-05-25T13:38:18.708530Z"}}